Theta_e
289 288 288 288 287 287 288 288 288 287 287 288 288 288 288 289 289 288 288 288 288 288 288 288 287 287 287 287 286 285 285 284 285 284 284 284 283 283 282 282 281 281 280 280 279 279 278 278 278 278 277 277 276 276 276 276 276 275 275 275 275 275
289 289 288 287 287 287 286 286 286 286 287 287 287 287 287 286 287 287 287 288 288 288 287 287 287 287 286 286 285 285 284 285 284 284 283 283 283 282 282 281 281 280 280 279 279 278 278 278 277 277 277 276 276 276 275 275 275 275 274 274 275 275
290 289 288 287 286 285 285 286 286 287 285 286 286 286 286 286 287 287 287 287 287 287 286 286 286 286 286 285 285 285 284 284 284 284 283 282 282 282 281 281 281 280 280 279 278 278 278 277 277 277 276 276 275 275 275 275 275 274 274 274 274 274
290 289 287 285 285 285 286 286 285 285 286 287 287 286 286 286 286 287 287 287 287 286 287 286 286 285 285 285 284 284 284 284 284 283 282 282 282 282 281 281 281 280 279 279 278 278 277 277 277 276 276 275 275 274 274 274 274 274 273 273 273 273
289 288 287 286 287 287 287 285 285 286 286 286 286 286 287 287 287 287 287 286 286 286 286 286 285 284 284 284 284 284 284 284 283 283 282 282 281 281 281 281 280 280 279 278 278 277 277 277 276 276 276 275 275 274 274 274 274 273 273 273 272 272
285 285 285 286 287 288 288 287 286 286 286 286 287 286 287 287 287 287 286 286 286 286 285 285 285 284 284 284 284 284 284 283 283 282 282 281 281 280 280 280 280 279 278 278 277 277 276 276 275 275 275 275 274 274 274 273 273 273 273 272 272 272
285 287 287 287 287 287 287 287 287 287 287 286 286 287 287 287 287 286 286 285 285 285 284 284 284 284 283 284 284 284 283 283 282 281 281 280 280 280 279 279 279 278 278 277 277 276 275 275 275 275 274 274 274 274 273 273 273 272 272 272 272 273
287 286 287 287 286 286 287 288 288 288 288 287 287 287 287 287 286 286 285 285 285 284 284 284 284 283 283 284 284 284 283 282 281 281 280 280 279 279 279 278 278 278 277 277 276 276 275 275 275 274 274 274 273 273 273 272 272 272 272 271 271 271
287 288 288 288 288 288 288 288 288 287 287 287 287 287 287 286 286 286 285 285 284 284 284 284 284 284 284 284 284 284 283 282 281 280 280 280 279 279 278 278 277 277 277 276 275 275 274 274 274 273 273 273 272 272 272 271 271 271 271 271 270 270
288 288 288 287 288 289 288 288 288 288 287 288 288 287 286 286 285 285 285 285 284 284 284 284 284 284 284 284 283 283 283 282 281 280 280 279 279 278 278 277 277 276 276 275 275 274 274 273 273 273 272 272 272 271 271 271 270 270 270 270 270 270
292 293 293 294 292 291 290 289 289 288 287 287 288 287 286 286 285 285 285 285 284 284 285 285 284 284 283 283 283 283 282 281 281 280 279 279 278 278 277 277 276 275 274 274 274 273 273 273 273 272 272 271 271 271 270 270 270 269 269 270 270 270
293 293 294 295 294 292 290 289 289 289 289 288 287 286 286 285 285 285 285 285 285 285 285 284 283 283 283 282 282 282 281 281 280 279 278 278 277 277 276 275 275 274 274 273 272 272 272 272 272 274 276 275 271 270 270 269 269 270 270 270 270 270
292 292 292 291 291 290 290 291 292 292 290 288 286 285 285 285 285 285 285 285 285 285 284 284 283 283 282 282 282 281 280 280 278 278 277 276 276 275 275 274 274 273 273 273 272 271 271 271 271 277 278 278 277 271 270 270 270 271 271 271 270 270
290 290 290 291 291 291 291 293 294 293 290 288 285 284 284 284 285 285 285 285 285 285 284 284 283 282 282 281 281 280 279 278 277 276 276 275 274 274 273 273 273 273 272 272 271 271 271 270 274 279 279 279 278 275 270 270 270 271 271 271 271 272
288 288 289 291 292 293 294 294 293 292 291 288 286 282 282 283 284 284 284 284 284 284 283 283 282 281 281 280 280 279 278 277 276 276 275 274 274 273 272 273 273 272 272 271 271 270 270 270 276 279 280 280 279 277 273 271 271 271 271 272 273 273
287 288 288 289 290 290 291 291 290 290 290 287 283 281 282 282 282 283 283 283 283 282 282 282 281 281 280 280 279 278 277 276 276 276 275 274 273 272 272 272 272 271 271 270 270 270 270 269 276 280 281 280 280 278 275 272 272 272 273 273 273 274
286 287 287 288 288 289 290 290 290 288 288 286 282 280 280 280 281 281 282 281 281 281 281 281 281 280 280 279 278 276 276 275 275 275 274 273 273 272 272 271 271 270 270 270 270 269 269 269 277 280 281 281 281 280 276 273 273 274 274 274 275 274
285 285 286 287 288 288 288 288 288 286 287 285 283 279 279 280 280 280 280 280 280 280 280 280 280 279 278 277 276 275 275 275 275 274 273 273 272 272 272 271 271 270 269 269 269 269 269 270 277 281 282 282 282 282 276 274 274 274 274 274 275 275
285 285 286 286 287 287 288 286 284 284 284 283 279 277 276 277 278 279 279 279 279 280 280 279 279 278 277 276 275 275 274 274 274 274 273 272 272 271 271 270 270 270 269 269 269 269 269 269 276 281 282 282 282 281 276 275 274 274 273 273 274 274
285 286 286 286 286 287 286 282 281 280 280 279 275 275 275 276 278 278 278 279 279 279 278 279 278 277 276 275 275 274 275 274 274 274 273 272 271 271 270 270 270 270 269 269 269 270 270 270 275 281 282 282 282 280 275 274 273 273 273 272 273 272
285 285 286 286 286 287 286 283 280 280 280 277 274 274 274 276 277 277 277 277 276 275 276 277 277 277 276 275 275 275 274 273 273 273 272 272 272 271 270 270 269 269 269 269 270 272 271 270 275 281 281 281 282 279 275 274 273 272 272 272 271 272
285 285 285 285 286 287 286 284 282 281 280 277 273 273 276 277 277 276 275 275 275 274 275 276 276 276 275 275 274 274 274 274 272 271 271 271 271 270 270 269 269 268 268 269 269 271 271 271 274 278 281 281 281 280 274 273 272 271 271 271 270 270
286 285 285 286 287 287 286 284 282 282 280 276 275 276 278 277 276 276 276 275 275 274 274 274 275 275 275 275 274 274 274 273 272 271 271 270 270 269 269 268 268 268 268 268 269 270 269 270 272 276 280 280 281 280 276 272 272 271 271 270 270 270
285 285 286 286 287 287 287 284 282 282 280 278 278 280 278 276 276 276 276 276 276 276 275 275 275 275 275 274 274 273 272 272 271 271 270 270 269 269 268 268 268 267 267 267 268 268 268 270 273 273 279 280 281 280 278 273 272 272 271 270 270 271
284 285 285 286 287 287 287 285 283 282 281 280 282 281 277 275 275 275 276 276 276 275 275 275 275 275 274 273 273 272 271 270 270 270 270 269 269 268 268 267 267 267 266 266 267 268 268 269 271 275 275 279 280 280 279 276 274 276 272 271 270 271
284 284 285 286 286 287 287 285 284 284 282 282 284 280 276 274 274 275 275 275 275 275 275 274 274 274 273 273 272 272 270 269 269 269 269 269 268 268 267 267 266 266 266 265 266 267 268 269 270 274 276 277 280 280 280 278 277 277 273 272 272 272
282 283 284 285 286 286 286 286 284 284 284 285 284 280 277 275 275 274 275 275 274 274 274 273 273 273 273 272 272 271 270 269 269 268 268 268 268 268 267 266 266 266 265 265 265 266 267 268 269 271 275 278 279 280 280 279 278 278 277 273 272 272
282 282 282 283 284 285 286 286 286 284 285 286 284 280 278 275 274 274 275 274 274 274 273 272 272 272 272 272 272 272 271 269 269 268 268 268 267 267 267 266 266 266 266 265 266 266 266 268 269 270 272 275 277 278 279 278 278 278 277 274 272 273
280 280 280 280 282 283 285 285 286 286 286 286 285 281 278 276 276 276 275 274 274 273 272 272 272 271 271 271 271 271 271 270 269 269 268 268 267 267 267 266 265 266 266 266 266 267 267 267 268 269 271 272 273 274 275 276 276 277 276 272 272 272
278 278 279 279 281 282 283 284 285 286 286 286 285 280 277 276 276 276 275 274 273 272 271 272 270 270 270 270 270 270 270 269 269 269 269 267 267 267 267 266 265 266 266 266 267 267 266 266 267 268 269 270 271 272 273 273 272 272 270 269 269 267
276 277 277 278 279 280 281 282 283 285 285 286 285 279 277 276 275 274 274 273 271 270 270 271 270 270 270 270 270 270 270 269 269 269 270 270 270 269 269 267 266 267 268 268 268 267 266 266 266 267 272 270 273 271 270 270 269 269 269 270 270 264
274 274 275 275 276 277 278 280 281 283 285 285 283 278 276 276 275 274 273 272 271 270 269 269 269 269 269 269 269 269 268 270 272 271 269 269 272 273 274 273 268 269 269 269 269 269 267 266 267 273 275 274 275 275 274 273 273 272 270 272 273 266
272 272 271 272 274 274 275 276 277 279 280 282 281 278 277 276 275 274 273 271 270 269 269 269 268 268 268 268 268 268 267 266 269 273 274 272 272 273 274 275 274 274 274 271 269 270 272 272 273 274 275 275 275 275 275 275 274 274 273 274 268 262
269 269 269 270 271 271 271 272 273 274 275 276 278 278 276 276 275 275 274 272 270 269 268 268 268 267 267 267 267 267 266 266 265 267 273 274 273 274 275 276 275 275 275 275 272 270 270 273 275 276 276 276 276 276 276 275 275 275 275 274 270 259
267 266 267 267 267 267 268 268 269 271 272 274 275 276 276 276 275 275 275 273 270 269 268 267 267 266 266 266 266 265 266 265 265 265 266 270 274 275 276 276 276 276 276 275 274 274 273 274 275 276 277 277 277 277 276 276 276 276 275 273 263 258
264 263 264 264 264 265 265 266 267 269 270 271 272 273 274 275 276 275 275 274 271 269 268 267 267 266 266 266 266 266 265 266 266 266 267 267 268 271 274 276 277 277 276 276 275 275 275 276 277 277 277 277 277 277 276 275 273 275 273 267 258 258
261 261 262 263 263 263 263 264 265 266 268 269 270 271 272 273 274 275 273 271 270 270 268 268 267 266 266 266 265 265 266 266 267 267 267 267 267 268 269 270 273 276 276 273 274 276 277 277 278 278 277 277 277 276 276 275 269 265 260 258 256 256
260 260 261 261 261 261 262 262 264 265 267 268 270 271 272 274 274 274 274 274 271 270 269 268 267 267 266 266 265 266 266 267 267 267 267 268 269 269 269 270 271 272 275 276 276 277 278 278 278 278 277 276 276 276 275 265 262 259 258 256 255 254
Wind_Speed
12 12 13 11 9 8 9 9 7 7 9 12 14 17 20 19 14 12 11 12 12 13 16 17 15 14 13 12 10 10 12 14 13 15 16 12 13 13 13 13 13 13 13 12 12 12 12 11 11 10 10 9 9 8 8 7 7 7 7 6 6 5
11 11 11 11 13 11 8 7 6 10 13 10 11 11 8 8 12 15 16 16 15 14 12 13 14 14 13 12 12 12 14 14 13 13 13 17 14 14 15 14 15 15 15 13 13 12 12 12 11 11 11 10 9 9 8 8 8 7 7 6 5 5
10 9 8 6 3 4 5 8 13 13 7 10 12 14 14 14 15 14 15 14 15 15 16 16 16 16 14 13 13 14 13 12 12 12 11 7 13 15 16 16 16 16 15 15 14 15 14 14 12 11 10 10 9 8 8 8 8 8 6 7 6 5
10 9 5 4 5 6 9 11 7 7 12 15 13 11 11 14 14 15 17 15 15 16 16 15 13 13 12 14 13 14 13 12 13 12 9 14 13 13 16 17 15 15 16 15 15 14 13 12 12 11 10 10 10 9 7 8 9 8 7 7 7 6
8 5 5 8 9 9 8 6 10 12 13 11 10 13 17 17 18 16 13 12 13 16 15 13 12 12 14 15 14 14 14 13 12 11 13 13 12 11 12 14 15 15 15 14 14 14 13 13 12 11 11 11 11 11 9 9 9 10 10 9 8 7
5 5 7 8 8 10 12 11 8 8 8 11 12 15 19 16 16 14 13 14 15 14 12 13 13 13 14 15 15 17 15 12 11 10 12 12 10 13 11 10 12 13 15 15 14 14 13 13 11 11 10 11 11 11 11 10 10 9 9 8 8 8
6 8 7 6 7 6 6 8 11 12 13 12 14 17 18 15 13 11 13 14 15 13 14 14 14 15 16 17 15 16 15 14 12 11 13 12 11 12 11 11 11 12 13 14 15 14 13 13 12 12 11 10 10 10 10 10 10 9 9 8 8 8
8 8 9 9 9 11 11 11 12 13 13 15 15 16 13 13 12 13 13 13 14 15 16 16 14 16 18 18 17 17 15 14 13 13 12 13 13 12 11 14 13 13 13 12 12 13 13 12 12 13 12 11 10 9 9 9 9 9 8 8 8 7
9 10 10 11 11 10 10 11 11 11 12 14 13 13 13 12 11 13 14 15 15 15 16 16 17 18 18 18 16 14 14 14 15 14 15 13 14 14 13 13 14 12 13 12 11 12 13 12 11 11 11 11 10 10 10 10 9 8 7 7 8 7
10 11 11 9 9 9 9 10 11 10 12 15 14 13 12 10 12 14 16 15 16 17 17 17 17 17 16 13 12 13 13 13 13 14 13 13 15 15 15 15 14 12 11 12 12 11 11 12 11 11 11 10 11 10 10 10 9 9 8 8 7 7
11 12 12 10 9 11 11 9 9 10 11 12 12 10 14 13 12 14 14 15 16 17 16 15 14 12 12 13 13 13 13 14 14 13 13 14 14 12 13 12 12 13 12 11 12 12 11 12 12 10 11 11 11 9 10 10 10 10 9 8 8 7
14 15 16 17 17 15 13 12 12 12 13 14 13 11 12 9 13 15 15 16 18 16 14 14 12 12 12 13 14 15 15 14 13 13 13 14 14 13 12 12 12 13 14 14 12 11 11 10 9 12 18 14 11 11 9 8 9 9 8 9 8 8
14 16 16 16 16 14 13 13 13 13 14 13 11 11 12 12 15 16 16 18 17 16 14 12 13 13 15 15 13 12 13 14 13 13 13 13 12 13 13 13 14 13 12 14 14 14 11 10 9 19 20 20 19 11 10 9 9 8 9 8 8 8
14 14 15 16 16 14 13 15 16 14 14 14 11 13 10 12 14 14 15 17 14 13 14 14 13 14 14 13 15 14 14 12 13 13 14 13 13 12 12 13 14 13 12 11 11 12 11 10 14 22 22 21 21 16 10 8 9 9 9 9 9 8
13 15 16 14 15 16 18 18 16 17 15 13 11 3 7 12 13 14 14 14 12 13 13 12 13 14 14 15 14 13 12 14 14 14 14 16 14 11 14 14 12 12 11 12 13 12 10 9 17 21 22 21 21 21 15 8 9 9 9 9 9 9
14 14 15 15 15 15 15 15 15 16 14 9 2 8 10 11 12 12 13 10 11 11 12 12 13 14 14 13 12 12 13 14 16 14 12 11 11 13 12 12 14 12 12 12 13 11 10 10 17 22 23 22 23 22 17 9 10 8 9 10 10 9
16 16 17 17 17 16 14 15 13 12 13 10 6 5 8 9 10 10 11 11 12 11 12 13 14 15 13 13 12 13 13 14 12 13 12 13 14 15 15 15 14 13 12 11 11 10 11 10 20 23 23 23 24 23 16 8 9 9 8 9 10 9
15 15 16 16 15 16 14 14 15 13 14 9 7 6 6 7 8 11 8 9 10 12 13 13 13 12 11 12 12 13 14 14 15 15 12 11 10 9 9 8 10 12 13 12 12 11 11 11 22 23 24 25 25 25 12 10 10 8 8 8 8 9
12 14 14 15 15 15 14 15 14 13 13 10 6 4 4 5 7 8 9 10 11 12 12 12 12 12 12 13 14 15 15 15 14 12 10 12 12 12 12 13 13 12 13 14 13 13 12 11 20 25 25 25 26 20 9 10 8 7 7 7 9 8
12 14 13 15 16 15 13 13 13 12 11 8 4 2 3 4 8 8 7 11 10 9 9 9 11 13 13 14 16 16 14 12 9 11 11 14 14 13 13 11 11 10 11 14 15 14 14 12 18 26 25 25 27 16 10 9 8 7 7 7 7 5
13 13 14 16 18 19 16 15 14 12 12 8 4 2 4 7 9 5 6 5 3 4 5 7 8 10 11 13 13 12 13 13 13 11 10 10 10 11 9 10 10 10 9 10 12 15 15 13 16 26 25 26 26 17 9 9 8 8 7 6 6 6
13 16 17 17 19 18 17 16 14 13 12 10 4 5 7 9 6 5 5 5 5 5 6 6 8 8 9 9 7 7 9 8 9 10 11 9 9 9 9 9 9 11 10 10 11 11 10 11 10 17 26 24 25 21 11 8 10 9 9 7 7 6
12 13 13 14 16 17 15 14 15 15 12 8 6 10 10 6 3 2 3 3 5 6 7 6 8 9 8 9 10 9 8 9 11 11 11 11 9 9 9 10 9 9 8 9 9 8 10 11 10 14 26 24 25 24 19 9 10 9 9 9 9 8
16 16 15 12 13 14 14 13 14 14 11 9 11 12 6 4 2 2 2 3 4 6 7 8 8 8 8 8 10 11 10 8 9 10 11 10 10 11 11 10 9 9 9 8 8 7 9 10 14 11 21 24 24 23 23 12 10 11 10 9 8 8
17 17 16 15 13 11 11 13 15 14 11 11 14 10 6 4 2 2 3 4 5 6 7 7 9 9 8 9 10 12 11 10 10 10 10 11 11 12 13 13 12 11 11 8 6 5 7 9 11 17 14 22 24 24 22 20 14 20 10 9 8 9
14 15 15 14 13 11 11 11 14 15 14 15 13 9 5 3 3 3 4 4 5 5 6 6 7 6 7 9 10 10 11 11 11 10 10 11 11 11 12 9 9 9 11 9 8 6 6 7 6 14 18 17 24 23 22 22 20 20 11 7 7 7
17 17 17 14 13 12 12 11 13 17 17 15 10 8 6 5 4 5 6 5 5 6 6 7 8 8 8 9 11 12 11 12 12 12 10 11 10 12 12 8 8 8 7 7 8 7 6 6 6 6 13 19 20 22 22 21 21 20 18 10 7 7
15 16 17 18 14 13 12 13 12 16 18 14 10 7 6 6 6 7 8 6 7 8 7 8 8 8 8 9 9 10 11 14 14 13 12 11 14 12 13 12 9 8 13 11 8 9 9 8 7 8 9 12 15 16 20 21 20 19 17 12 9 13
14 17 18 19 17 13 12 13 13 14 15 15 12 8 7 7 8 8 7 8 7 7 8 10 9 9 9 11 9 9 9 10 11 12 13 14 18 15 13 11 10 10 11 10 9 9 9 8 10 11 11 10 10 9 12 13 13 17 15 9 8 8
16 17 18 18 18 15 14 15 15 15 15 15 13 8 7 8 9 9 9 9 7 7 9 10 11 12 10 11 12 11 10 9 10 12 15 16 20 18 16 15 11 13 12 11 13 13 12 13 13 13 13 12 11 11 10 9 8 8 6 7 6 6
17 17 18 19 18 17 16 16 16 16 15 14 13 8 8 10 10 9 8 7 7 8 8 8 9 10 10 11 10 9 10 11 11 10 8 8 10 14 17 17 16 18 17 18 17 17 10 7 14 14 13 14 17 15 12 10 10 8 7 9 11 8
16 17 18 18 18 17 16 16 17 16 15 13 11 7 9 11 9 8 9 7 8 7 7 8 9 9 9 10 10 9 8 7 10 9 8 8 12 18 15 15 15 17 15 15 13 15 20 20 16 20 28 25 23 23 20 16 16 14 10 13 18 10
16 16 20 19 16 14 15 15 16 16 16 16 12 9 10 10 9 9 9 8 9 10 10 9 8 9 9 9 9 8 9 7 7 14 16 11 12 18 19 17 15 19 20 15 14 11 10 13 21 27 26 25 25 24 22 21 20 19 19 18 12 7
15 18 18 17 15 17 16 16 16 19 19 18 18 12 10 10 10 10 10 10 10 9 9 9 9 9 9 9 9 9 9 9 9 7 15 17 15 20 21 20 18 20 20 17 14 13 10 17 24 28 27 26 26 24 22 22 21 21 21 20 16 7
14 13 16 16 21 21 19 18 20 15 17 13 12 14 14 14 12 13 12 10 9 8 10 9 9 10 11 11 11 11 11 11 11 11 9 10 17 20 20 20 21 23 22 19 20 20 18 21 24 27 27 26 25 25 24 23 22 22 22 20 9 8
13 15 15 16 17 20 20 20 19 21 15 17 15 16 18 17 16 15 13 11 10 10 10 11 11 11 12 12 11 11 11 11 11 11 11 11 10 13 16 19 21 22 23 22 24 22 23 26 28 28 27 27 25 25 23 21 16 20 20 14 9 8
17 20 21 23 21 19 18 22 23 22 16 12 16 17 17 18 17 14 15 18 13 10 11 11 11 11 10 10 11 11 12 12 11 11 12 13 14 14 14 11 13 20 24 19 19 21 26 28 29 28 27 27 25 24 24 21 12 10 6 5 5 7
20 19 19 19 16 18 18 23 23 21 14 16 14 17 17 17 16 15 13 12 13 12 10 10 10 10 11 11 11 10 10 10 11 12 12 11 11 11 11 10 10 11 18 26 22 26 28 29 27 26 26 25 25 25 24 12 8 7 6 6 5 6
Wind_Direction
229 219 213 215 221 222 215 206 197 204 209 210 205 205 207 206 202 201 204 204 207 206 205 204 204 205 206 204 197 188 198 200 199 193 191 173 176 175 175 176 175 175 178 176 176 175 177 175 176 173 173 173 169 173 171 171 165 160 157 158 152 159
229 227 216 209 213 211 208 199 196 209 212 206 214 219 214 204 203 201 205 205 207 208 204 205 204 203 200 199 194 196 201 202 199 200 187 188 173 178 174 175 179 178 176 178 175 176 175 176 177 177 175 173 175 170 169 175 167 163 160 157 152 153
238 235 232 224 234 225 206 203 206 211 195 209 210 210 209 210 212 205 212 204 208 205 204 204 201 200 196 193 196 200 203 199 197 198 200 171 188 177 176 180 181 178 177 174 176 177 178 178 178 179 174 174 172 174 171 170 168 161 158 152 154 155
244 240 230 208 200 219 215 215 210 203 204 211 207 210 214 215 216 212 213 206 207 205 209 205 201 198 193 195 195 201 202 200 197 192 178 193 191 184 184 181 178 178 175 175 177 178 178 179 177 175 174 174 172 172 170 171 167 163 160 158 162 161
265 252 218 209 212 220 225 219 211 213 216 212 208 207 218 212 215 213 213 209 208 210 209 202 197 194 196 196 198 201 202 200 192 183 190 191 188 188 188 186 179 176 174 175 176 176 177 178 177 178 176 177 174 172 172 173 171 169 166 167 168 163
254 254 234 220 218 219 219 218 222 226 223 217 213 215 221 214 217 210 207 209 212 210 202 202 198 193 197 199 202 202 198 191 189 183 189 191 185 186 187 183 183 176 176 176 175 177 176 175 176 176 180 178 175 174 173 172 174 172 170 165 160 160
263 248 249 241 237 237 232 223 223 218 221 216 216 223 223 216 213 206 211 209 211 205 203 203 196 197 198 202 202 203 193 189 184 181 186 182 187 190 177 177 179 182 180 180 178 175 175 176 173 175 178 179 179 176 171 172 170 170 166 162 162 164
247 246 238 230 223 217 217 220 222 222 224 223 218 222 221 215 206 209 209 209 209 206 204 202 197 202 203 204 202 198 192 187 182 183 185 181 183 181 186 179 178 181 185 181 177 174 173 173 176 178 177 176 174 172 172 168 167 166 163 161 163 161
259 252 246 227 223 217 218 219 222 221 224 235 228 224 220 211 200 206 208 209 208 209 208 202 202 203 205 203 201 195 189 186 184 181 185 182 178 177 182 188 181 181 178 177 172 175 174 173 174 175 176 174 173 172 170 168 165 163 158 161 161 162
262 261 259 258 249 240 232 226 224 226 227 233 228 218 216 208 200 206 208 207 209 211 209 204 205 205 205 201 198 193 191 186 183 185 181 174 179 182 183 182 185 179 173 173 172 173 169 170 174 176 175 175 173 171 170 169 164 160 157 158 161 164
276 278 278 271 276 281 277 271 257 246 241 238 235 215 214 205 200 208 209 209 212 214 210 207 207 203 196 192 191 191 189 188 186 181 178 180 181 179 181 178 177 173 174 170 171 169 170 174 178 177 174 171 174 172 169 168 165 161 160 158 164 170
299 293 292 294 291 283 270 257 252 247 244 243 232 215 218 185 203 206 208 211 215 214 208 205 199 195 191 190 192 191 188 185 181 179 180 181 180 175 172 174 178 179 176 171 170 170 173 179 176 179 178 176 170 169 166 161 163 160 159 161 164 173
302 300 297 289 282 270 259 255 255 259 257 251 238 214 210 190 209 208 207 210 213 210 203 197 195 189 193 195 191 188 183 183 179 179 178 177 175 174 173 173 175 180 181 176 172 173 176 177 175 179 181 180 176 166 163 163 164 163 162 165 164 173
336 322 307 296 286 275 268 267 265 261 253 247 235 223 198 198 210 209 213 216 209 203 199 196 192 190 195 188 191 186 185 177 175 178 178 175 175 176 169 176 181 177 175 174 174 175 175 174 178 182 182 180 177 171 166 162 164 165 166 169 173 176
340 335 329 320 312 303 294 286 284 279 267 254 244 199 187 205 208 210 215 213 205 204 197 192 190 194 190 192 188 181 175 177 178 179 176 182 179 164 175 181 171 178 173 173 173 175 174 172 180 183 182 181 178 173 167 167 165 168 169 172 176 178
338 333 327 320 313 310 304 300 291 285 284 284 198 179 206 202 210 210 214 208 204 199 192 192 192 193 193 187 181 175 177 178 184 182 178 166 163 174 174 173 177 172 175 175 175 173 172 171 185 184 183 182 179 175 169 171 167 164 171 175 179 181
330 329 329 328 322 315 316 314 306 295 290 282 248 209 198 207 207 210 210 203 201 191 192 192 193 193 187 181 177 176 181 182 178 174 176 174 176 176 179 177 177 177 172 172 170 169 174 179 186 186 185 183 180 177 166 166 169 170 174 179 182 186
326 323 320 317 318 316 319 319 318 312 293 289 256 231 203 203 208 215 207 204 198 197 197 192 192 187 179 176 175 178 182 182 181 178 173 170 173 175 167 171 171 170 172 172 170 170 177 180 189 187 186 185 184 178 165 170 172 169 169 175 184 190
320 320 319 320 320 320 323 325 321 312 304 300 288 253 216 194 218 221 210 210 203 202 195 190 186 182 178 176 177 184 183 181 181 176 167 169 174 173 177 177 177 175 173 173 175 175 178 181 192 188 185 184 184 181 155 166 164 167 160 168 179 183
325 326 330 326 325 325 328 326 319 313 307 303 308 257 238 209 227 221 212 216 209 203 196 190 184 182 179 179 186 186 185 179 173 173 171 175 174 179 181 172 172 178 178 176 179 181 177 180 190 187 185 183 185 173 158 164 159 149 156 165 172 160
329 328 331 334 333 332 334 331 324 319 308 306 302 262 243 240 240 230 229 237 204 192 187 187 187 187 184 188 190 181 176 176 177 170 166 175 173 175 167 171 173 175 180 185 182 181 180 177 187 186 185 184 185 172 154 158 155 157 163 167 166 175
332 337 339 337 331 329 333 333 329 318 309 309 302 277 258 249 236 215 203 187 172 170 174 181 185 184 182 183 171 172 177 168 158 164 170 170 168 165 168 171 173 177 182 177 179 184 174 163 183 186 184 181 182 168 157 152 160 167 168 168 176 181
331 329 328 328 327 329 329 333 331 320 317 318 311 281 274 289 274 235 210 166 164 170 174 171 180 178 176 169 170 166 166 170 170 165 169 166 164 160 163 172 172 173 177 177 178 176 168 180 177 186 185 183 183 171 163 161 167 165 166 167 174 186
324 324 326 324 325 325 327 331 326 315 314 318 297 283 309 296 262 214 177 184 184 180 175 175 171 167 166 163 160 166 173 171 166 169 168 166 163 163 165 167 170 173 172 170 177 173 173 185 187 180 186 184 184 176 169 166 171 167 161 171 180 186
320 322 321 324 325 324 323 327 320 313 309 304 291 299 296 266 236 194 188 185 182 181 179 176 170 167 163 169 172 169 169 164 163 166 168 166 165 168 169 171 171 170 173 165 163 159 164 180 188 186 184 185 184 182 174 172 170 177 171 178 180 183
312 315 316 318 319 319 319 320 312 308 304 294 291 297 283 262 234 201 200 201 191 178 175 168 170 167 169 170 167 171 166 168 168 167 174 172 170 171 172 175 167 162 172 165 161 166 164 176 174 188 187 187 185 186 177 177 178 180 176 177 171 163
317 316 313 313 316 317 312 307 300 297 293 290 288 275 259 242 222 210 209 204 191 181 173 164 169 169 171 175 173 174 173 169 168 170 178 175 179 180 172 161 152 163 144 146 157 159 160 166 165 181 190 190 188 187 184 178 180 186 179 167 161 144
311 311 310 311 314 312 309 303 296 289 287 290 288 263 243 224 220 227 222 201 187 183 170 173 172 170 174 179 188 191 185 177 177 177 178 183 177 177 175 156 163 161 176 173 154 155 158 165 153 170 180 191 189 188 188 184 183 186 178 149 150 150
310 310 309 306 308 308 302 298 293 286 287 290 286 264 233 228 228 229 220 210 202 184 177 180 182 179 178 182 187 194 193 190 188 184 185 176 159 177 179 175 166 168 179 170 155 147 158 156 169 176 176 176 176 176 183 184 187 182 172 152 165 166
308 307 308 305 305 307 303 298 293 291 292 292 289 264 239 237 233 230 226 213 199 195 191 193 185 180 185 189 188 188 191 199 199 197 196 184 182 183 188 183 171 174 172 168 167 167 168 176 178 180 176 174 171 171 175 171 166 166 149 143 140 128
304 303 304 303 302 303 302 297 295 294 292 288 285 261 241 246 241 237 235 217 202 205 198 196 185 190 189 192 195 203 196 188 195 209 228 232 210 199 189 182 187 187 185 179 177 173 164 133 181 186 174 174 174 168 164 160 162 152 150 156 141 113
302 306 303 297 298 299 298 298 300 301 301 298 285 256 244 249 244 234 233 213 211 209 196 201 195 192 189 190 193 195 201 208 211 215 217 219 218 226 228 199 191 187 178 184 187 178 174 181 180 170 177 175 173 173 168 163 162 165 157 175 164 140
310 306 300 295 296 294 296 297 297 297 298 300 292 263 250 246 242 238 233 213 213 207 201 201 195 192 191 190 189 190 195 200 214 218 220 220 212 212 215 206 206 195 189 181 170 174 170 162 164 171 171 172 173 172 169 168 173 170 174 174 144 127
301 298 297 298 298 296 296 294 290 288 287 289 294 291 264 247 240 243 236 219 217 205 200 201 196 188 186 192 187 188 186 191 194 208 216 216 209 203 204 206 199 191 186 184 167 155 145 162 166 167 168 169 169 170 170 171 172 172 173 163 143 130
292 290 291 292 292 294 295 294 287 280 281 284 294 296 282 265 250 247 248 233 213 204 198 196 195 193 192 189 186 188 185 187 188 189 185 201 205 200 198 198 197 190 188 178 170 164 159 159 162 164 166 168 171 172 172 172 172 171 166 152 136 147
284 279 272 273 278 285 290 287 284 282 282 293 297 294 285 274 262 250 249 239 213 201 198 201 200 197 199 195 190 187 185 190 188 184 178 169 172 190 200 202 196 189 183 180 176 170 164 163 163 165 168 171 172 169 167 165 165 163 152 144 153 149
293 289 285 285 287 285 283 281 280 281 291 297 290 282 277 274 267 261 253 243 225 204 207 202 199 200 196 192 190 188 186 186 184 179 182 180 180 179 180 176 182 183 175 169 169 167 165 163 164 164 167 167 165 164 164 158 150 141 111 94 114 150
285 282 285 288 288 284 279 277 275 280 291 284 274 273 272 270 264 257 253 246 224 214 211 201 199 196 194 193 192 186 184 180 178 182 184 184 182 178 168 165 164 163 170 167 168 167 164 164 164 166 163 164 165 166 159 142 151 144 156 151 157 154